Wetbulb
51.02 50.99 52.19 53.29 53.18 54.09 54.15 55.59 54.99 55.08 55.63 55.01 54.47 53.97 53.97 53.92 53.95 54.20 55.78 56.45 57.28 59.36 58.76 57.92 57.42 55.42 54.44 53.64 52.79 49.51 47.73 45.62 45.15 44.63 44.21 44.06 43.62 43.25 42.74 44.01 45.82 46.88 48.25
49.21 50.32 50.21 51.80 51.88 53.11 53.47 54.43 54.60 54.70 55.13 55.64 56.10 55.45 54.78 54.16 54.28 54.23 54.63 55.80 57.17 57.21 58.08 57.66 57.22 56.11 53.90 53.12 51.85 49.20 46.00 45.47 45.79 44.07 43.56 42.20 44.09 43.45 42.92 41.79 43.57 43.07 46.51
49.24 49.54 49.95 50.54 50.26 51.47 51.25 53.14 53.20 53.35 53.61 54.32 54.98 53.35 53.23 52.70 51.26 52.74 52.70 54.39 56.61 56.42 57.85 58.35 57.42 56.15 54.58 53.65 52.36 49.91 47.87 45.86 46.71 46.34 45.15 41.90 40.93 42.46 43.37 43.53 43.46 42.21 41.48
51.74 49.88 49.53 49.07 49.34 50.38 51.84 51.88 52.03 51.79 51.69 52.72 51.79 50.80 51.45 50.76 51.89 51.72 51.95 52.97 55.39 56.59 56.35 57.58 57.80 56.43 55.57 54.13 53.53 52.91 49.92 49.46 45.12 45.93 47.04 46.77 45.18 41.65 39.71 42.75 43.99 42.78 40.95
52.09 50.04 49.64 49.88 50.01 50.76 51.12 51.50 51.86 51.94 51.63 51.48 50.95 49.28 49.43 49.78 50.66 51.24 51.66 52.96 55.38 56.89 57.94 57.86 57.40 57.04 56.11 55.22 53.97 52.08 50.65 50.82 49.43 48.11 45.47 46.17 44.41 44.62 42.40 40.81 42.28 42.03 41.34
52.58 51.69 51.12 50.80 50.14 49.82 50.41 50.96 51.08 51.29 51.65 51.64 51.56 50.73 50.38 51.26 51.49 52.22 52.77 53.87 55.23 56.64 57.25 57.77 56.90 56.41 56.33 55.75 55.04 53.79 52.20 50.59 49.82 49.55 48.47 47.31 45.96 42.09 42.15 40.54 41.06 40.54 42.14
52.63 52.04 50.15 49.73 50.30 49.62 50.02 50.42 50.75 50.68 51.54 51.29 51.56 51.85 51.62 52.50 53.35 53.39 53.37 53.99 54.65 55.76 57.38 56.85 56.03 56.13 56.86 56.85 56.53 53.80 52.06 50.67 50.20 49.25 47.36 48.36 47.43 46.11 44.60 42.20 40.05 40.00 40.34
52.52 52.70 51.87 50.57 50.51 50.71 49.83 50.08 50.62 50.72 51.31 51.25 51.31 52.15 53.30 54.56 55.42 55.26 54.67 54.07 54.70 55.69 56.91 57.84 57.84 57.70 57.46 57.53 55.77 54.62 53.62 51.89 50.58 49.18 48.96 48.35 47.76 46.12 44.35 42.32 40.67 37.45 34.74
49.67 52.76 53.63 51.75 51.38 51.56 51.36 50.15 50.55 51.01 51.47 51.59 51.81 51.95 52.80 54.01 55.26 56.52 55.71 55.38 55.44 55.79 55.45 57.97 57.22 57.23 56.19 55.23 53.16 52.56 50.91 50.51 49.94 49.18 48.30 47.33 46.14 44.96 42.46 42.47 41.38 38.98 35.10
49.52 51.06 53.71 53.26 53.11 53.17 53.18 51.97 51.68 51.56 51.92 52.26 52.54 52.84 53.74 55.25 55.95 56.83 56.91 56.06 56.87 55.83 54.65 56.03 55.47 54.63 54.20 52.72 50.68 49.51 50.40 49.81 48.97 48.38 47.06 44.91 45.03 44.69 44.96 44.55 44.07 42.88 40.59
51.06 51.10 52.75 54.35 54.28 54.71 54.18 53.46 52.06 52.46 53.35 54.07 54.03 53.60 54.38 55.73 56.48 56.91 57.31 57.33 56.74 56.75 56.01 55.41 55.19 54.36 52.51 51.53 49.88 49.30 49.51 49.08 47.71 46.32 45.40 44.67 45.27 43.75 44.40 43.14 43.45 42.07 40.72
51.10 51.82 53.06 54.15 54.05 54.22 54.90 53.89 53.75 52.82 53.13 54.20 55.05 55.01 55.44 56.36 56.48 56.78 57.72 57.90 57.64 56.75 56.69 56.23 55.31 54.34 52.76 51.63 50.05 48.52 48.65 48.19 46.12 45.20 44.62 44.02 44.82 44.00 43.61 42.63 41.43 40.47 39.62
47.24 49.73 51.69 53.62 53.69 54.31 54.74 54.84 54.61 53.95 54.18 54.28 54.43 55.12 55.77 56.53 56.93 57.85 58.46 58.59 58.26 57.68 57.23 55.19 53.91 52.68 51.83 50.89 49.15 48.89 47.58 46.43 45.52 44.88 44.29 44.11 44.12 42.50 41.04 39.86 39.04 38.60 38.95
47.06 48.04 49.65 51.78 53.93 54.43 54.61 54.87 55.25 55.70 55.59 55.57 55.19 55.16 55.87 57.17 58.39 58.62 58.37 58.41 58.39 57.66 54.10 53.17 53.10 53.04 50.61 49.87 48.73 48.60 46.24 45.02 44.38 44.61 44.43 44.44 43.27 41.40 40.38 39.92 38.90 37.96 36.89
45.61 47.55 49.18 50.81 52.38 53.93 54.60 55.49 55.53 55.73 56.42 56.24 56.22 56.19 56.77 57.76 58.07 57.84 58.23 58.63 57.66 55.93 53.80 51.37 51.62 49.64 49.50 48.21 47.79 45.47 44.19 43.87 43.25 43.54 43.58 42.87 42.74 41.31 40.30 39.33 36.79 34.20 34.73
47.37 46.91 50.62 51.07 51.98 53.08 53.88 54.92 55.87 56.20 56.65 56.03 56.28 57.31 57.49 57.52 57.36 57.56 58.35 56.11 53.82 53.49 52.28 51.63 50.44 48.28 47.67 41.30 40.98 42.97 43.36 43.29 42.59 41.65 41.72 41.85 41.57 39.00 36.82 36.15 34.91 32.22 28.46
48.51 47.39 47.70 51.54 52.27 53.05 53.55 53.84 54.77 55.42 56.19 56.58 56.79 57.15 57.56 57.61 57.42 56.27 53.43 52.87 51.45 49.76 47.94 46.32 47.07 46.19 43.50 39.39 40.22 40.02 42.48 41.81 41.31 40.80 40.49 39.39 37.06 34.92 33.31 32.34 31.10 30.30 30.89
48.05 46.93 46.21 51.00 53.71 54.01 54.29 53.48 55.09 55.75 56.11 56.30 56.29 57.08 57.44 56.75 53.78 52.29 50.65 48.19 47.38 46.12 44.79 44.32 43.87 44.29 41.87 38.68 38.69 38.04 40.37 39.89 39.20 38.56 37.62 33.50 32.10 30.94 29.32 27.15 26.05 26.00 26.20
48.86 47.87 46.16 50.62 52.92 53.61 52.75 53.08 55.26 55.21 55.29 55.28 54.46 53.94 53.34 51.01 50.31 47.98 46.53 45.22 44.13 43.52 43.66 42.86 43.75 41.82 39.60 37.80 37.35 38.59 38.30 35.35 32.86 32.59 32.00 31.32 29.42 30.73 30.26 26.40 24.84 24.98 26.30
45.87 48.18 50.84 52.10 53.17 51.37 52.65 52.44 53.25 53.58 52.71 51.74 50.62 50.19 49.53 48.92 46.70 45.44 43.59 43.46 42.80 41.46 40.26 38.58 39.29 38.63 38.57 36.80 37.10 36.45 34.25 30.43 29.07 28.83 28.72 29.65 28.30 28.27 27.78 25.29 24.71 24.51 24.67
48.44 50.09 51.72 52.38 51.92 50.40 50.97 48.92 48.24 48.99 48.41 48.90 47.24 46.24 45.76 44.37 43.03 40.59 40.46 39.70 39.51 38.64 35.39 32.56 33.10 34.49 35.90 35.76 35.66 34.42 31.67 29.63 27.58 26.40 24.34 24.75 26.72 27.10 28.36 28.43 25.95 24.21 22.85
48.93 49.97 49.19 47.23 47.57 48.37 48.55 45.66 44.16 43.94 43.90 42.50 42.08 41.48 40.89 40.65 40.22 39.75 39.36 38.84 37.09 34.17 31.21 29.52 27.98 28.40 29.47 30.93 31.13 30.53 29.32 28.69 25.90 25.05 24.48 24.60 26.21 27.49 27.77 25.56 25.37 24.04 22.96
46.17 46.91 46.44 44.00 44.26 45.50 46.26 43.51 42.15 42.49 41.38 40.73 39.84 40.21 40.22 39.12 38.43 37.32 36.80 34.62 33.33 32.80 30.33 28.52 26.13 24.70 24.89 26.97 28.18 27.36 26.68 25.94 24.49 24.78 24.38 25.02 25.93 26.54 25.05 24.47 23.63 22.23 20.28
44.13 43.53 43.53 42.42 41.03 42.39 42.54 41.78 41.93 41.73 40.77 39.21 38.35 36.32 33.75 31.74 31.41 32.13 33.60 32.22 31.27 31.60 29.59 27.36 24.53 22.97 21.58 21.90 22.47 23.43 23.63 24.41 23.80 23.41 23.67 23.31 24.43 23.48 22.82 22.42 21.54 20.08 18.92
43.11 43.17 42.11 40.44 40.22 40.73 40.64 41.10 40.99 40.62 36.90 33.55 32.29 30.42 28.86 27.65 27.06 27.96 29.27 28.82 29.68 31.86 29.00 26.44 24.55 21.61 21.06 22.13 23.80 23.72 23.01 23.19 23.76 22.44 22.25 20.53 19.98 19.28 19.34 18.95 18.41 17.58 17.08
41.98 41.29 40.21 39.63 39.30 38.80 37.51 38.17 38.83 36.56 33.14 30.22 29.36 27.77 26.36 26.10 26.12 25.58 25.47 29.52 30.08 30.23 29.76 28.65 26.63 25.52 25.07 24.77 24.76 24.66 24.41 24.85 24.92 21.61 18.09 15.28 14.52 16.24 16.98 15.78 15.18 15.22 14.64
MSLP
1011.61 1012.29 1012.65 1013.22 1013.70 1014.06 1014.34 1014.49 1014.60 1014.70 1015.28 1015.79 1016.08 1016.87 1017.21 1017.29 1017.34 1017.42 1018.17 1017.84 1018.87 1019.09 1019.61 1019.69 1020.00 1020.41 1020.86 1021.24 1021.84 1022.66 1023.08 1023.59 1023.90 1024.58 1025.08 1025.08 1024.99 1025.06 1025.19 1025.16 1025.20 1025.09 1025.20
1011.51 1012.24 1012.74 1013.18 1013.69 1014.20 1014.58 1014.60 1014.78 1015.11 1015.45 1015.69 1015.98 1016.58 1017.41 1017.54 1017.19 1016.93 1017.37 1018.46 1018.84 1018.99 1019.37 1019.51 1019.83 1020.27 1020.80 1021.25 1021.94 1022.21 1022.84 1023.17 1023.61 1024.40 1025.06 1025.21 1025.07 1024.91 1024.89 1024.95 1024.98 1025.01 1025.31
1010.89 1011.72 1012.44 1012.98 1013.58 1013.81 1014.12 1014.51 1014.87 1015.04 1015.37 1015.64 1016.23 1016.89 1017.69 1017.72 1017.67 1017.44 1017.61 1017.76 1018.22 1018.86 1019.11 1018.91 1019.72 1020.08 1020.52 1021.03 1021.31 1021.70 1021.99 1022.78 1023.45 1023.41 1023.85 1024.95 1024.83 1024.73 1024.52 1024.86 1025.02 1025.13 1025.34
1010.37 1011.17 1011.72 1012.47 1013.09 1013.59 1014.16 1014.55 1014.79 1015.06 1015.38 1015.88 1016.43 1016.87 1017.30 1017.52 1017.53 1017.79 1017.81 1017.95 1017.84 1018.00 1018.35 1018.85 1019.36 1019.79 1020.05 1020.45 1020.78 1021.09 1021.65 1022.18 1022.89 1023.43 1023.31 1023.34 1023.69 1024.39 1025.06 1024.76 1024.50 1024.71 1024.88
1009.50 1010.11 1010.61 1011.36 1012.29 1013.19 1013.77 1014.14 1014.47 1014.82 1015.14 1015.58 1016.27 1016.83 1017.16 1017.51 1017.74 1017.97 1018.15 1018.23 1018.15 1018.33 1018.41 1018.67 1019.05 1019.16 1019.37 1019.65 1020.13 1020.60 1021.12 1021.62 1022.31 1022.29 1023.02 1023.53 1023.71 1023.93 1024.85 1024.67 1024.30 1024.59 1024.38
1008.89 1009.48 1010.04 1011.13 1011.82 1012.61 1013.39 1013.94 1014.23 1014.26 1014.47 1014.98 1015.56 1016.06 1016.49 1016.98 1017.26 1017.57 1017.97 1018.01 1018.16 1018.19 1018.05 1018.21 1018.44 1018.59 1018.88 1019.15 1019.37 1019.97 1020.68 1020.96 1021.32 1021.35 1021.74 1022.23 1022.94 1023.62 1024.11 1024.35 1024.29 1024.49 1024.09
1007.69 1008.67 1009.49 1010.30 1011.13 1011.92 1012.53 1013.09 1013.54 1013.81 1014.13 1014.63 1015.09 1015.36 1015.72 1016.07 1016.45 1016.94 1017.33 1017.34 1017.44 1017.63 1017.58 1017.77 1018.02 1018.21 1018.23 1018.54 1019.13 1019.61 1020.07 1020.45 1020.90 1020.96 1021.34 1021.53 1022.01 1022.69 1023.16 1023.66 1023.99 1024.20 1024.15
1006.77 1007.43 1008.20 1009.01 1009.85 1010.74 1011.60 1012.30 1012.76 1013.18 1013.53 1014.00 1014.45 1014.84 1015.26 1015.49 1015.81 1016.19 1016.42 1016.63 1016.75 1016.74 1016.92 1016.89 1017.05 1017.51 1017.75 1017.74 1018.04 1019.01 1019.54 1019.98 1020.29 1020.42 1020.77 1021.21 1021.64 1022.19 1022.68 1022.96 1023.63 1024.33 1024.46
1005.43 1006.10 1007.06 1007.73 1008.57 1009.44 1010.23 1010.92 1011.39 1011.99 1012.43 1012.82 1013.39 1013.80 1014.19 1014.50 1014.48 1014.86 1015.37 1015.71 1015.89 1015.93 1016.13 1016.24 1016.49 1016.77 1017.25 1017.50 1017.98 1018.44 1018.90 1019.33 1019.72 1020.06 1020.58 1020.92 1021.53 1022.05 1022.45 1022.74 1023.00 1023.62 1024.40
1004.25 1005.10 1005.99 1006.68 1007.34 1008.17 1009.17 1010.01 1010.27 1010.81 1011.77 1012.39 1012.42 1012.54 1012.80 1013.18 1013.46 1013.99 1014.07 1014.39 1014.71 1015.24 1015.72 1015.82 1015.92 1016.18 1016.64 1017.00 1017.45 1017.87 1018.30 1018.80 1019.30 1019.77 1020.32 1020.93 1021.38 1021.87 1022.20 1022.71 1023.04 1023.46 1023.83
1003.29 1003.77 1004.35 1005.19 1006.05 1007.37 1008.27 1008.48 1009.42 1010.39 1010.77 1010.46 1011.00 1011.64 1011.99 1012.44 1013.03 1013.14 1013.09 1013.40 1013.89 1014.25 1014.72 1015.25 1015.55 1015.72 1016.02 1016.49 1017.06 1017.43 1017.84 1018.44 1019.07 1019.38 1019.99 1020.55 1021.01 1021.66 1022.42 1022.59 1023.04 1023.34 1023.64
1002.46 1002.89 1003.32 1004.08 1005.13 1005.82 1006.62 1007.03 1008.35 1008.72 1008.55 1009.27 1010.26 1010.62 1011.09 1011.53 1012.05 1012.26 1012.59 1012.99 1013.16 1013.64 1014.01 1014.04 1014.79 1015.19 1015.66 1016.00 1016.43 1017.09 1017.43 1018.08 1018.72 1019.07 1019.81 1020.46 1020.96 1021.66 1022.03 1022.65 1022.83 1023.15 1023.46
1001.89 1002.34 1003.00 1003.41 1003.92 1004.78 1005.53 1006.24 1006.91 1007.08 1007.69 1008.67 1008.93 1009.64 1010.00 1010.37 1010.36 1010.82 1011.18 1011.73 1012.27 1012.04 1012.72 1013.30 1014.25 1014.55 1015.07 1015.66 1015.89 1016.38 1016.91 1017.52 1018.14 1018.82 1019.46 1020.05 1020.57 1021.31 1022.16 1022.45 1022.86 1023.17 1023.46
1001.16 1001.61 1002.22 1002.42 1002.85 1003.50 1004.20 1004.72 1005.33 1005.83 1006.40 1007.42 1007.81 1008.33 1008.31 1008.72 1009.01 1009.58 1010.22 1010.47 1010.96 1011.49 1012.12 1012.61 1013.40 1014.06 1014.53 1015.19 1015.45 1015.95 1016.64 1017.33 1018.02 1018.69 1019.20 1020.00 1020.47 1021.21 1021.65 1022.11 1022.49 1022.85 1022.96
1000.93 1001.14 1001.43 1001.64 1001.99 1002.56 1003.01 1003.64 1003.91 1004.65 1005.11 1005.79 1006.38 1006.51 1007.18 1007.60 1008.20 1008.74 1009.13 1009.61 1010.15 1010.61 1011.10 1011.76 1012.65 1013.56 1014.08 1014.76 1015.20 1015.88 1016.53 1017.33 1018.18 1018.71 1019.30 1019.88 1020.41 1020.86 1021.31 1021.82 1021.96 1022.61 1023.22
1000.20 1000.15 1000.31 1000.75 1001.41 1001.54 1001.91 1002.23 1002.69 1002.97 1003.71 1004.29 1004.76 1005.50 1006.20 1006.76 1007.31 1007.97 1008.54 1009.15 1009.77 1010.29 1011.03 1011.86 1012.47 1013.39 1013.90 1014.57 1014.86 1015.60 1016.42 1017.03 1017.63 1018.35 1019.11 1019.79 1020.41 1021.05 1021.42 1021.53 1022.09 1022.58 1023.22
999.43 999.60 999.84 999.94 1000.33 1000.72 1000.96 1001.29 1001.57 1002.32 1003.03 1003.54 1004.30 1004.91 1005.57 1006.11 1006.89 1007.35 1008.21 1008.96 1009.64 1010.16 1011.00 1011.63 1012.16 1012.98 1013.57 1014.26 1014.72 1015.45 1016.15 1016.83 1017.67 1018.53 1019.26 1020.10 1020.89 1021.32 1021.63 1022.05 1022.50 1022.85 1023.13
998.64 998.54 998.89 999.40 999.49 999.94 1000.62 1001.11 1001.49 1002.17 1003.00 1003.42 1003.99 1004.82 1005.41 1006.10 1006.71 1007.18 1007.77 1008.70 1009.44 1009.95 1010.89 1011.66 1012.27 1013.10 1013.93 1014.42 1015.00 1015.69 1016.55 1017.43 1018.20 1018.88 1019.61 1020.29 1021.10 1021.57 1021.95 1022.40 1022.78 1023.05 1023.18
997.65 997.77 998.11 998.81 999.09 999.75 1000.38 1001.04 1001.76 1002.32 1003.14 1003.59 1004.07 1004.73 1005.47 1006.30 1007.01 1007.67 1008.25 1008.86 1009.49 1010.69 1011.21 1011.98 1012.70 1013.51 1014.58 1015.19 1015.78 1016.36 1017.29 1018.16 1019.06 1019.70 1020.22 1020.76 1021.26 1021.90 1022.01 1022.38 1022.73 1022.93 1022.99
997.31 997.61 997.94 998.68 999.43 1000.15 1000.69 1001.48 1002.05 1002.78 1003.27 1003.94 1004.60 1005.04 1005.91 1006.68 1007.48 1008.01 1008.72 1009.51 1010.15 1010.97 1011.88 1012.81 1013.58 1014.33 1015.18 1015.87 1016.37 1016.95 1017.85 1018.88 1019.71 1020.32 1020.81 1020.97 1021.45 1021.87 1022.10 1022.37 1022.63 1022.74 1022.87
997.59 997.77 998.29 998.70 999.39 1000.40 1001.21 1001.93 1002.76 1003.47 1003.93 1004.77 1005.41 1005.99 1006.36 1007.11 1007.89 1008.62 1009.44 1010.07 1010.92 1011.87 1012.95 1013.92 1015.01 1015.40 1015.88 1016.55 1016.93 1017.42 1018.15 1018.95 1019.80 1020.40 1021.13 1021.54 1021.76 1021.95 1022.09 1022.28 1022.49 1022.67 1022.98
997.90 998.36 998.95 999.59 1000.03 1000.59 1001.43 1002.53 1003.34 1004.00 1004.72 1005.60 1006.29 1006.95 1007.33 1007.74 1008.46 1009.18 1010.19 1010.94 1011.89 1012.96 1014.15 1015.05 1016.12 1016.79 1017.18 1017.55 1017.94 1018.38 1018.88 1019.37 1019.91 1020.73 1021.32 1021.68 1021.82 1021.90 1022.02 1022.33 1022.50 1022.81 1023.11
999.14 999.16 999.54 1000.23 1001.06 1001.53 1002.06 1003.22 1004.31 1005.01 1005.30 1006.19 1007.44 1008.25 1008.58 1008.97 1009.53 1010.32 1011.39 1012.32 1013.13 1014.02 1015.12 1015.90 1016.89 1017.90 1018.53 1018.78 1019.10 1019.22 1019.46 1020.02 1020.63 1021.24 1021.63 1021.82 1022.02 1022.06 1022.27 1022.49 1022.78 1023.05 1023.13
1000.25 1000.43 1000.89 1001.75 1002.34 1002.65 1002.98 1003.92 1004.75 1005.32 1006.09 1007.06 1008.30 1009.37 1009.89 1010.47 1011.07 1011.69 1012.37 1013.21 1014.03 1014.83 1015.68 1016.57 1017.54 1018.48 1019.16 1019.49 1019.63 1019.93 1020.32 1020.68 1021.04 1021.51 1021.85 1022.01 1022.11 1022.37 1022.60 1022.74 1022.97 1023.16 1023.13
1000.90 1001.25 1002.07 1002.90 1003.79 1003.96 1004.13 1004.90 1005.41 1005.95 1007.16 1008.16 1009.25 1010.38 1011.15 1011.66 1012.42 1013.28 1013.88 1014.24 1014.78 1014.92 1015.57 1016.68 1017.49 1018.30 1019.22 1019.80 1020.02 1020.22 1020.54 1020.93 1021.24 1021.67 1021.97 1022.24 1022.49 1022.68 1022.80 1022.95 1023.12 1023.22 1023.25
1001.97 1002.87 1003.46 1004.03 1004.97 1005.34 1005.63 1006.16 1006.51 1006.73 1007.77 1009.25 1010.17 1011.10 1011.79 1012.44 1013.03 1013.66 1014.66 1015.25 1015.37 1015.64 1016.23 1017.01 1017.65 1018.64 1019.15 1019.64 1020.07 1020.47 1020.72 1020.81 1021.20 1021.65 1022.13 1022.66 1022.89 1022.99 1023.15 1023.28 1023.31 1023.32 1023.35
Wind_Speed
6 6 6 6 7 6 7 7 9 9 10 9 9 5 6 2 4 5 6 5 5 5 6 4 5 5 6 7 7 4 4 1 3 4 1 2 3 3 4 4 4 5 5
7 7 7 8 8 7 8 8 8 10 9 7 7 5 5 2 2 1 1 5 4 4 5 6 5 5 4 5 6 5 3 2 5 4 2 1 2 3 5 4 4 6 2
9 10 11 12 9 9 7 9 8 7 5 7 6 5 2 1 1 3 1 3 2 5 6 5 5 5 5 6 6 6 7 5 4 4 5 2 5 1 1 5 4 4 4
8 7 11 11 12 11 8 8 7 7 5 5 5 6 9 8 6 4 3 5 5 4 5 6 6 7 7 7 7 6 5 5 5 1 2 1 4 4 3 2 3 5 6
14 13 13 13 12 11 10 10 10 9 8 7 7 5 5 3 2 3 5 6 6 6 8 7 8 7 6 7 8 6 6 4 4 4 3 2 1 3 3 4 3 2 4
15 13 10 9 9 8 8 10 11 12 13 12 11 11 11 9 8 6 7 7 7 7 9 9 8 8 7 7 7 7 8 9 5 5 4 5 4 4 4 3 4 3 3
17 15 14 14 12 13 13 12 14 16 15 15 15 14 14 13 11 10 9 9 9 9 10 8 7 6 7 5 6 7 8 7 7 8 5 3 4 4 3 3 3 4 2
16 19 19 17 16 17 17 16 18 18 18 18 18 16 15 11 11 12 9 8 9 9 7 9 8 7 10 10 9 7 7 8 8 8 5 4 4 3 3 4 4 1 2
19 21 19 20 18 19 19 19 19 19 19 19 17 18 16 17 15 15 10 9 8 7 7 11 11 11 10 9 8 7 9 9 7 7 6 4 3 4 4 3 4 4 3
17 16 18 19 18 19 18 19 21 19 15 15 16 16 17 17 16 13 13 11 11 6 7 9 10 10 10 9 9 6 6 8 6 5 7 4 4 6 5 4 3 2 3
15 18 18 19 20 15 18 20 18 18 18 21 19 18 17 17 14 14 14 11 8 9 10 9 9 10 11 9 8 7 8 9 8 6 8 9 9 6 4 4 3 2 3
11 14 17 17 18 20 20 23 18 22 24 21 18 19 17 15 13 13 12 11 12 8 10 11 13 10 10 10 10 9 9 11 9 9 9 9 6 5 5 3 3 2 2
8 9 10 16 18 19 19 20 20 23 21 18 20 18 17 16 18 16 17 14 14 15 13 10 12 11 10 10 9 10 10 9 9 10 11 10 8 7 4 4 3 1 2
10 8 8 14 16 17 19 19 20 21 20 19 20 20 20 19 17 16 14 16 15 14 13 13 11 10 10 10 9 9 8 8 8 9 9 8 8 6 6 4 3 2 2
8 9 9 11 13 15 16 17 18 18 19 19 19 21 17 14 12 13 15 15 11 12 10 10 9 8 9 7 9 8 9 10 9 7 7 7 7 8 5 3 3 2 0
10 11 13 11 11 14 16 16 17 18 17 18 20 16 14 11 13 12 13 9 9 9 8 9 9 9 5 11 13 11 10 10 11 10 8 7 8 7 11 12 9 6 3
14 11 13 16 13 15 16 17 16 10 13 15 13 13 12 13 11 9 9 10 9 9 8 9 9 9 7 15 15 13 9 10 9 8 7 6 6 7 6 8 6 4 1
13 10 9 11 14 8 6 6 7 7 9 9 9 9 11 9 8 10 11 10 9 10 9 8 9 7 6 13 14 13 8 7 7 7 7 8 7 6 5 5 3 1 1
15 11 6 5 5 8 8 8 7 7 7 8 9 9 9 9 8 9 8 7 9 8 6 7 7 8 8 11 13 11 9 9 9 7 7 7 7 8 6 4 1 1 2
7 9 7 7 10 8 10 10 9 8 9 9 8 9 9 9 8 8 8 5 7 9 7 9 7 9 9 12 13 11 7 9 6 6 7 12 7 6 3 3 2 2 2
6 5 7 9 8 9 10 10 9 7 7 7 8 8 7 8 9 8 8 9 9 10 10 11 9 10 8 8 13 12 6 6 6 5 4 3 5 4 4 5 3 3 3
6 7 7 6 6 8 10 9 8 8 9 9 9 8 8 8 8 10 9 9 10 11 9 10 9 8 9 13 14 15 13 9 6 5 3 3 4 4 5 4 5 6 3
4 5 8 9 6 6 8 10 6 9 11 11 9 9 9 9 8 10 9 8 8 9 8 7 8 7 6 7 15 16 15 12 6 4 4 5 5 6 5 5 6 4 3
3 4 7 7 6 6 8 9 10 11 12 12 11 9 10 10 9 7 6 7 6 7 7 7 7 6 5 4 3 5 6 7 5 5 4 3 4 5 4 3 4 4 3
4 6 7 8 7 7 10 8 10 13 12 12 10 10 8 10 11 11 6 6 5 4 8 6 8 8 6 4 6 5 4 3 4 4 2 3 2 2 2 2 2 3 3
7 8 9 11 9 9 10 8 8 12 13 11 8 7 8 8 8 10 11 19 17 19 18 16 11 7 13 12 10 8 6 6 8 2 3 2 1 1 1 1 2 2 4
Wind_Direction
154 155 154 147 152 157 157 168 147 129 143 151 139 132 152 243 181 162 160 102 166 169 172 167 161 166 166 179 176 138 160 126 152 106 18 248 221 227 222 225 231 206 193
155 160 160 173 183 174 176 172 163 162 158 155 157 136 165 286 244 166 151 163 199 191 188 175 169 174 157 151 172 167 139 155 175 145 91 290 291 229 206 208 219 223 204
195 176 173 185 179 189 178 173 170 164 149 158 163 112 130 322 305 254 289 280 199 196 196 157 177 184 179 191 188 185 170 160 191 198 145 130 230 350 125 209 209 216 203
205 190 180 180 187 189 175 178 170 174 156 153 174 182 197 198 212 228 246 267 281 258 219 203 198 191 193 192 201 179 183 147 175 218 191 98 144 168 326 234 214 209 214
197 200 196 189 188 176 180 180 177 181 184 168 179 179 191 190 218 206 221 249 259 240 234 206 203 204 195 203 187 172 191 182 174 168 143 159 129 89 184 234 265 286 230
201 207 201 179 183 176 177 184 190 195 192 190 194 188 194 200 203 214 222 231 235 237 231 219 197 199 201 191 190 187 204 201 202 183 166 165 158 187 184 203 245 226 262
188 197 191 186 184 186 192 189 195 205 201 202 205 201 202 206 211 215 217 218 227 233 234 210 202 202 201 192 195 196 208 191 197 184 186 162 156 134 174 165 212 225 255
196 195 196 193 191 193 193 194 198 207 204 202 209 209 211 214 216 220 221 221 222 226 219 208 195 215 213 203 203 200 207 206 208 186 182 162 165 159 184 171 152 218 297
195 201 195 195 190 196 198 200 201 207 206 207 207 210 209 215 219 220 215 223 228 230 210 209 205 208 210 202 186 196 196 192 191 187 168 150 149 147 135 130 138 157 207
198 201 200 198 197 199 200 202 208 208 209 212 214 218 217 221 221 221 219 207 224 205 213 212 203 199 203 193 182 180 169 172 181 172 157 139 137 145 149 138 129 154 167
201 199 202 199 200 193 200 207 206 201 209 215 217 218 221 224 223 226 225 211 196 202 202 210 215 205 197 190 184 183 168 181 178 155 164 166 162 156 144 152 166 177 148
207 202 200 196 194 198 197 204 200 208 211 212 215 220 221 217 213 216 209 206 217 199 199 211 216 209 208 192 186 184 178 183 178 171 166 158 144 153 148 161 147 138 102
197 199 191 201 196 198 202 203 203 212 216 211 216 219 220 217 214 204 208 206 213 214 211 205 205 197 196 201 185 184 177 175 172 167 165 155 163 155 154 130 122 115 287
196 194 198 204 204 195 202 202 205 210 213 214 217 215 219 217 211 213 204 204 210 208 190 187 190 201 188 196 180 178 167 160 159 158 152 160 158 152 148 151 174 177 18
213 197 200 208 205 197 200 207 209 205 207 211 213 217 216 213 207 200 206 208 208 206 191 172 170 179 178 178 169 157 150 149 147 137 141 142 140 145 140 171 122 104 275
233 216 209 203 206 195 201 201 208 209 197 206 213 212 206 192 193 195 204 189 180 184 174 184 177 166 165 163 150 148 153 153 156 155 149 148 144 108 121 103 104 118 130
230 218 204 204 199 203 206 205 208 190 191 200 203 201 198 202 195 174 160 176 170 144 146 143 152 168 153 156 149 144 147 148 147 146 140 115 104 111 103 93 91 80 51
232 227 207 200 206 188 168 132 132 152 179 180 172 178 192 201 170 161 160 150 148 146 146 145 138 140 139 148 139 127 120 110 98 98 108 121 112 97 107 92 71 67 277
230 224 217 194 164 154 138 126 134 135 148 156 157 154 154 151 158 152 142 127 121 125 123 121 130 125 133 130 120 110 105 99 97 93 94 108 111 100 84 97 29 342 323
214 196 169 139 143 150 141 139 147 148 149 144 141 134 139 145 136 122 113 102 107 108 102 87 76 100 113 115 107 108 112 113 113 101 101 89 99 90 62 115 110 8 358
213 139 154 160 145 132 137 134 139 146 116 116 117 115 111 114 115 104 103 106 105 98 88 81 68 73 84 97 109 113 115 131 127 111 102 93 75 61 71 87 87 52 27
149 145 128 107 112 124 129 126 119 119 115 110 104 102 103 109 106 106 103 103 107 106 99 97 81 66 74 85 93 100 103 109 111 118 109 93 67 77 92 83 49 38 36
70 76 114 110 92 102 122 117 118 119 110 101 96 98 93 88 92 108 108 102 106 115 116 111 109 96 76 80 92 93 90 86 89 94 95 86 88 104 84 55 53 49 9
86 87 99 91 85 83 88 111 120 114 107 105 98 89 86 79 66 66 78 102 114 121 127 126 121 117 107 97 77 82 87 98 96 106 89 90 100 85 79 64 44 20 7
83 85 96 90 74 79 88 104 118 117 106 100 99 94 91 92 85 67 62 81 60 121 143 137 137 136 125 120 125 124 113 125 118 112 103 82 73 70 67 55 26 8 357
98 87 83 88 80 76 72 68 88 108 110 101 97 102 105 103 103 103 89 68 82 92 99 111 118 100 117 120 115 115 124 143 153 106 113 107 95 96 109 27 343 345 349